[[{"header":{"parameterUnit":"m.s-1","parameterCategory":1,"la1":30.2991,"la2":30.254,"lo1":-89.0895,"lo2":-89.0444,"dy":0.0017,"dx":0.0017,"nx":28,"ny":28,"refTime":"2024-05-29T09:00:00:Z","depth":0,"parameterNumber":2,"parameterNumberName":"U-component_of_WINDS"},"data":[0,0,0,0,0,0,0,0,0,0,0,0,0,0,0,0,0,0,0,0,0,0,0,0,0,0,0,0,0,0,0,0,0,0,0,0,0,0,0,0,0,0,0,0,0,0,0,0,0,0,0,0,0,0,0,0,0,0,-2.5407,-2.5407,0,-2.5412,-2.5412,-2.5412,-2.5348,-2.5346,-2.5344,-2.5342,-2.5349,-2.5351,-2.5352,0,0,0,0,0,0,0,0,0,0,0,0,0,-2.5343,-2.5345,-2.5407,-2.5407,-2.5407,-2.5412,-2.5412,-2.5412,-2.5348,-2.5346,-2.5344,-2.5342,-2.5348,-2.535,-2.5353,0,0,0,0,0,0,0,0,0,0,0,0,0,-2.5362,-2.5345,-2.5407,-2.5375,-2.5373,-2.5412,-2.5412,-2.5412,-2.5348,-2.5346,-2.5343,-2.5341,-2.5348,-2.535,-2.5353,-2.5423,0,0,-2.5361,-2.5362,0,0,0,0,0,0,0,0,-2.5361,-2.5364,-2.538,-2.5378,-2.5375,-2.5376,-2.5392,-2.5416,-2.5349,-2.5358,-2.5342,-2.5339,-2.536,-2.5362,-2.5369,-2.5423,-2.5424,-2.5362,-2.5363,-2.5364,-2.5365,0,0,0,0,0,0,0,-2.536,-2.5364,-2.5409,-2.538,-2.5377,-2.5362,-2.5362,-2.5396,-2.5374,-2.5357,-2.5352,-2.5353,-2.5358,-2.5366,-2.5368,-2.5424,-2.5361,-2.5364,-2.5366,-2.5367,-2.5538,-2.5541,0,0,0,0,0,0,-2.5362,-2.5363,-2.5409,-2.5409,-2.5361,-2.5365,-2.5365,-2.5379,-2.5373,-2.537,-2.5356,-2.535,-2.5363,-2.5365,-2.5368,-2.545,-2.5364,-2.5367,-2.5369,-2.5535,-2.5538,-2.5542,0,0,0,0,0,0,-2.5361,-2.5367,-2.5409,-2.5385,-2.5389,-2.5369,-2.5385,-2.538,-2.5388,-2.5373,-2.5368,-2.5368,-2.5361,-2.5364,-2.541,-2.545,-2.5368,-2.5371,-2.5532,-2.5536,-2.554,-2.5615,0,0,0,0,0,0,-2.536,-2.5367,-2.5393,-2.5386,-2.5391,-2.545,-2.5388,-2.5382,-2.5393,-2.5386,-2.5383,-2.538,-2.5359,-2.5406,-2.5413,-2.5452,-2.5373,-2.5528,-2.5534,-2.5539,-2.5609,-2.5621,-2.5632,0,0,0,0,0,-2.5358,-2.5414,-2.5394,-2.54,-2.5422,-2.5452,-2.5455,-2.543,-2.5396,-2.5422,-2.5413,-2.538,-2.5445,-2.5412,-2.5418,-2.5459,-2.5525,-2.5532,-2.5538,-2.5603,-2.5619,-2.5632,0,0,0,0,0,0,-2.5425,-2.5412,-2.5391,-2.5446,-2.5451,-2.5441,-2.5473,-2.5446,-2.5461,-2.5454,-2.5423,-2.5423,-2.5474,-2.5471,-2.5434,-2.5527,-2.5479,-2.5487,-2.5526,-2.5541,-2.5552,-2.5551,-2.5375,0,0,0,0,0,-2.5447,-2.5472,-2.5459,-2.5509,-2.5513,-2.5493,-2.5505,-2.5485,-2.5489,-2.5491,-2.5484,-2.549,-2.5512,-2.5526,-2.5545,-2.5609,-2.5608,-2.564,-2.5652,-2.5662,-2.5668,-2.5702,-2.5717,-2.5563,-2.5563,-2.5563,0,0,-2.5491,-2.5487,-2.5504,-2.5523,-2.5524,-2.5551,-2.5495,-2.5526,-2.5545,-2.5496,-2.5538,-2.5534,-2.5538,-2.5593,-2.5617,-2.5593,-2.5711,-2.567,-2.5678,-2.5679,-2.5711,-2.5725,-2.5738,-2.5568,-2.5567,-2.5566,0,0,-2.5585,-2.5585,-2.5626,-2.5629,-2.5632,-2.5619,-2.563,-2.5625,-2.562,-2.5663,-2.5626,-2.565,-2.5688,-2.5692,-2.57,-2.5799,-2.5769,-2.5806,-2.5866,-2.59,-2.5912,-2.5922,-2.5957,-2.597,-2.5814,-2.5814,-2.5814,0,-2.5639,-2.5678,-2.5651,-2.5685,-2.5694,-2.5651,-2.5694,-2.5698,-2.5708,-2.5715,-2.5688,-2.5736,-2.5736,-2.5791,-2.5816,-2.5823,-2.5834,-2.5805,-2.5912,-2.5922,-2.5932,-2.5965,-2.5978,-2.5818,-2.5818,-2.5817,-2.5817,0,-2.5745,-2.5773,-2.5806,-2.5816,-2.583,-2.5868,-2.5848,-2.5865,-2.5846,-2.5836,-2.588,-2.5879,-2.5897,-2.591,-2.5891,-2.5963,-2.5948,-2.5917,-2.5868,-2.5951,-2.5982,-2.5994,-2.5825,-2.5823,-2.5822,-2.5821,0,0,-2.5879,-2.5876,-2.5888,-2.5893,-2.5894,-2.5915,-2.5953,-2.5971,-2.5986,-2.5995,-2.6025,-2.606,-2.6032,-2.604,-2.6022,-2.6052,-2.613,-2.6017,-2.6017,-2.6037,-2.6211,-2.6233,-2.6248,-2.6112,-2.6114,-2.6116,-2.621,0,-2.597,-2.6032,-2.601,-2.6073,-2.6099,-2.606,-2.6092,-2.6097,-2.609,-2.6111,-2.6104,-2.6128,-2.6089,-2.6094,-2.6122,-2.6115,-2.6164,-2.6108,-2.614,-2.6141,-2.6138,-2.6264,-2.6287,-2.6376,-2.6222,-2.6224,-2.6225,0,-2.6084,-2.6097,-2.6163,-2.6161,-2.6171,-2.6201,-2.6216,-2.6237,-2.6243,-2.6236,-2.6247,-2.6223,-2.626,-2.6213,-2.6264,-2.6226,-2.6238,-2.6237,-2.624,-2.624,-2.6187,-2.6267,-2.6404,-2.6417,-2.6244,-2.6243,-2.6241,0,-2.6174,-2.6209,-2.6253,-2.6259,-2.6258,-2.6279,-2.628,-2.6283,-2.6296,-2.6311,-2.6319,-2.6338,-2.6348,-2.6363,-2.6345,-2.6312,-2.6399,-2.635,-2.6394,-2.6395,-2.6413,-2.6411,-2.6552,-2.6423,-2.6423,-2.6423,-2.6422,0,-2.6277,-2.6319,-2.6294,-2.6321,-2.6367,-2.6343,-2.6389,-2.6386,-2.639,-2.6416,-2.6384,-2.641,-2.6385,-2.6409,-2.6396,-2.644,-2.6446,-2.6441,-2.6437,-2.6443,-2.6443,-2.6449,-2.6442,-2.6426,-2.6426,-2.6425,-2.6424,0,-2.6385,-2.637,-2.6415,-2.6411,-2.6412,-2.6446,-2.6443,-2.6468,-2.646,-2.6494,-2.6501,-2.6487,-2.6514,-2.6498,-2.6525,-2.6516,-2.6574,-2.6562,-2.6572,-2.6568,-2.6613,-2.6609,-2.6761,-2.678,-2.664,-2.6641,-2.6643,0,-2.6451,-2.6482,-2.6482,-2.6497,-2.65,-2.6525,-2.6538,-2.6517,-2.6532,-2.6542,-2.6566,-2.659,-2.6608,-2.6653,-2.6646,-2.6667,-2.6654,-2.6707,-2.6657,-2.6663,-2.6654,-2.6652,-2.6655,-2.6716,-2.6718,-2.6719,-2.672,0,-2.6569,-2.6561,-2.658,-2.6598,-2.6615,-2.6628,-2.6639,-2.6653,-2.6632,-2.6651,-2.6678,-2.6692,-2.672,-2.6744,-2.6763,-2.6764,-2.6739,-2.6736,-2.6747,-2.6753,-2.6757,-2.6755,-2.6598,-2.6732,-2.6731,-2.673,-2.6729,-2.6729,-2.6657,-2.6683,-2.6688,-2.6711,-2.6717,-2.6729,-2.6752,-2.6747,-2.6769,-2.679,-2.6777,-2.6808,-2.6815,-2.6837,-2.6843,-2.6868,-2.6847,-2.6863,-2.6867,-2.6871,-2.6877,-2.6755,-2.6871,-2.6871,-2.6871,-2.687,-2.687,0,-2.6773,-2.6775,-2.6797,-2.6813,-2.6832,-2.6807,-2.6818,-2.6836,-2.6864,-2.6872,-2.6891,-2.6923,-2.6947,-2.6943,-2.6965,-2.6986,-2.6975,-2.6993,-2.699,-2.6991,-2.6895,-2.6882,-2.7001,-2.7001,-2.7001,-2.7001,-2.7001,-2.7001,-2.6836,-2.6879,-2.6872,-2.6918,-2.6919,-2.695,-2.6959,-2.6969,-2.6976,-2.7012,-2.7032,-2.703,-2.7033,-2.7056,-2.7077,-2.7076,-2.7085,-2.7107,-2.7101,-2.7011,-2.6998,-2.6985,-2.6974,-2.7109,-2.711,-2.7195,-2.7196,-2.7196]},{"header":{"parameterUnit":"m.s-1","parameterCategory":1,"la1":30.2991,"la2":30.254,"lo1":-89.0895,"lo2":-89.0444,"dy":0.0017,"dx":0.0017,"nx":28,"ny":28,"refTime":"2024-05-29T09:00:00:Z","depth":0,"parameterNumber":3,"parameterNumberName":"V-component_of_WINDS"},"data":[0,0,0,0,0,0,0,0,0,0,0,0,0,0,0,0,0,0,0,0,0,0,0,0,0,0,0,0,0,0,0,0,0,0,0,0,0,0,0,0,0,0,0,0,0,0,0,0,0,0,0,0,0,0,0,0,0,0,2.9327,2.9327,0,2.9317,2.9317,2.9317,2.9304,2.9304,2.9304,2.9304,2.9292,2.9292,2.9292,0,0,0,0,0,0,0,0,0,0,0,0,0,2.9335,2.9335,2.9327,2.9327,2.9327,2.9317,2.9317,2.9317,2.9305,2.9304,2.9304,2.9304,2.9293,2.9292,2.9292,0,0,0,0,0,0,0,0,0,0,0,0,0,2.9329,2.9335,2.9327,2.932,2.9319,2.9317,2.9317,2.9317,2.9305,2.9304,2.9304,2.9304,2.9293,2.9292,2.9292,2.9297,0,0,2.9292,2.9292,0,0,0,0,0,0,0,0,2.9329,2.9329,2.9321,2.932,2.9319,2.9312,2.9316,2.931,2.9305,2.931,2.9304,2.9304,2.9299,2.9298,2.9297,2.9296,2.9296,2.9292,2.9292,2.9291,2.9291,0,0,0,0,0,0,0,2.933,2.9329,2.9323,2.9321,2.932,2.9317,2.9315,2.9315,2.9306,2.9309,2.9309,2.9308,2.9299,2.9297,2.9297,2.9296,2.9292,2.9291,2.9291,2.9291,2.9299,2.9299,0,0,0,0,0,0,2.9331,2.933,2.9324,2.9323,2.9324,2.9317,2.9315,2.9314,2.9306,2.9305,2.9308,2.9307,2.9298,2.9297,2.9296,2.9301,2.9291,2.9291,2.9291,2.9299,2.9299,2.9299,0,0,0,0,0,0,2.9332,2.9331,2.9324,2.9326,2.9325,2.9317,2.9316,2.9314,2.9313,2.9305,2.9303,2.9308,2.9297,2.9297,2.9297,2.9301,2.9291,2.9291,2.9298,2.9299,2.9299,2.9311,0,0,0,0,0,0,2.9332,2.9331,2.9333,2.9326,2.9325,2.9325,2.9316,2.9314,2.9313,2.9312,2.9305,2.9303,2.9297,2.9297,2.9297,2.93,2.9291,2.9298,2.9298,2.9299,2.9311,2.9312,2.9314,0,0,0,0,0,2.9332,2.9337,2.9333,2.9332,2.9327,2.9325,2.9325,2.9318,2.9313,2.9315,2.931,2.9304,2.9301,2.9298,2.9297,2.93,2.9298,2.9298,2.9299,2.931,2.9312,2.9314,0,0,0,0,0,0,2.9343,2.9335,2.9332,2.9334,2.933,2.9323,2.9325,2.932,2.9317,2.9316,2.9308,2.9306,2.9308,2.9304,2.9301,2.9305,2.9298,2.9299,2.9307,2.9309,2.931,2.9311,2.9291,0,0,0,0,0,2.9346,2.9346,2.9339,2.9341,2.934,2.9333,2.9332,2.9327,2.9323,2.9321,2.9316,2.9312,2.9311,2.931,2.9307,2.931,2.9309,2.9313,2.9314,2.9315,2.9316,2.9317,2.9319,2.9302,2.9302,2.9302,0,0,2.9352,2.9347,2.9348,2.9344,2.934,2.934,2.9332,2.9332,2.9331,2.9321,2.9321,2.9318,2.9313,2.9315,2.9315,2.9312,2.932,2.9316,2.9317,2.9317,2.9318,2.932,2.9321,2.9302,2.9302,2.9302,0,0,2.9362,2.9358,2.936,2.9358,2.9353,2.9348,2.9349,2.9343,2.934,2.934,2.9333,2.9332,2.933,2.9326,2.9324,2.9334,2.9328,2.9334,2.9341,2.9343,2.9344,2.9345,2.9349,2.935,2.9334,2.9334,2.9334,0,2.9369,2.9368,2.9362,2.9362,2.9361,2.9353,2.9354,2.9352,2.9347,2.9346,2.9342,2.9339,2.9335,2.9336,2.9339,2.9337,2.9338,2.9334,2.9345,2.9346,2.9347,2.935,2.9351,2.9335,2.9335,2.9335,2.9335,0,2.9377,2.9377,2.9379,2.9375,2.9374,2.9375,2.9369,2.9368,2.9364,2.936,2.936,2.9356,2.9352,2.9353,2.9348,2.9353,2.9351,2.9346,2.9339,2.9349,2.9352,2.9353,2.9336,2.9336,2.9336,2.9336,0,0,2.9393,2.9386,2.9387,2.9385,2.938,2.9379,2.938,2.9378,2.9378,2.9375,2.9375,2.9373,2.9369,2.9367,2.9362,2.9364,2.9371,2.9358,2.9358,2.9361,2.9377,2.938,2.9381,2.9368,2.9368,2.9368,2.9377,0,2.9401,2.9403,2.9397,2.94,2.94,2.9392,2.9393,2.939,2.9387,2.9386,2.9382,2.938,2.9375,2.9374,2.9375,2.937,2.9374,2.937,2.9368,2.9368,2.9369,2.9383,2.9386,2.9395,2.9378,2.9378,2.9378,0,2.9411,2.9409,2.9412,2.9407,2.9407,2.9408,2.9405,2.9405,2.9401,2.9399,2.9397,2.9391,2.9392,2.9386,2.9387,2.9384,2.9383,2.9381,2.9381,2.938,2.9373,2.9382,2.9397,2.9398,2.938,2.938,2.938,0,2.9422,2.942,2.9421,2.942,2.9415,2.9416,2.9413,2.941,2.9409,2.9407,2.9406,2.9404,2.9402,2.9401,2.9395,2.9392,2.9396,2.939,2.9394,2.9394,2.9394,2.9394,2.9409,2.9395,2.9395,2.9395,2.9395,0,2.9431,2.9433,2.9426,2.9427,2.9429,2.9423,2.9425,2.9422,2.9419,2.9419,2.9413,2.9413,2.9406,2.9405,2.9401,2.9402,2.9402,2.9399,2.9398,2.9399,2.94,2.9398,2.9397,2.9395,2.9395,2.9395,2.9395,0,2.9443,2.9439,2.944,2.9435,2.9434,2.9435,2.9431,2.9431,2.9428,2.9428,2.9428,2.9422,2.9421,2.9416,2.9413,2.941,2.9413,2.9411,2.9414,2.9413,2.9417,2.9417,2.9431,2.9433,2.9418,2.9418,2.9418,0,2.9449,2.9451,2.9446,2.9446,2.9444,2.9444,2.9443,2.9437,2.9437,2.9433,2.9434,2.9433,2.9432,2.943,2.9426,2.9424,2.9421,2.9427,2.9421,2.9423,2.9421,2.9421,2.9421,2.9428,2.9428,2.9428,2.9428,0,2.9461,2.9459,2.9458,2.9456,2.9456,2.9454,2.9452,2.9452,2.9446,2.9446,2.9445,2.9444,2.9442,2.9441,2.9438,2.9436,2.9431,2.943,2.9431,2.9432,2.9434,2.9433,2.9417,2.943,2.9429,2.9429,2.9429,2.9429,2.9469,2.947,2.9468,2.9467,2.9465,2.9464,2.9464,2.9461,2.946,2.9458,2.9455,2.9455,2.9452,2.9448,2.9446,2.9446,2.9443,2.9444,2.9444,2.9444,2.9445,2.9435,2.9445,2.9445,2.9445,2.9445,2.9445,0,2.948,2.9478,2.9478,2.9475,2.9475,2.9471,2.9469,2.9469,2.9469,2.9467,2.9466,2.9465,2.9464,2.946,2.9458,2.9459,2.9456,2.9458,2.9458,2.9457,2.9448,2.9447,2.946,2.946,2.946,2.946,2.946,2.946,2.9486,2.9487,2.9485,2.9485,2.9483,2.9483,2.9482,2.9481,2.9479,2.9479,2.9478,2.9475,2.9472,2.9471,2.947,2.9468,2.9468,2.9471,2.9469,2.946,2.9458,2.9457,2.9456,2.9471,2.9471,2.9478,2.9478,2.9478]}]]